NPV7592 LIPE-EGNX

Flight info

Callsign NPV7592
Flight time N/A
Altitude 40000
Route LUPOS DCT OSBUL DCT ABESI DCT UTAVO DCT HOC DCT LUL DCT RLP DCT ROTSI DCT KOTUN DCT NINAL DCT ABNUR DCT DIMAL DCT ALESO T420 HEMEL
Aircraft A359/H-SDE2E3GHIJ3J4J5LM1ORWXY/LB1D1

Departure

Time 2026-05-04 16:02
Airport Bologna Guglielmo Marconi Airport (LIPE)

Arrival

Time N/A
Airport East Midlands Airport (EGNX)
Time Latitude Longitude Altitude Speed Heading
2026-05-04 15:08 44.53368 11.28468 128 ft 0 kts 250°
2026-05-04 15:25 44.53368 11.28469 137 ft 0 kts 250°
2026-05-04 15:44 44.53368 11.28468 137 ft 0 kts 250°
2026-05-04 15:45 44.53366 11.28460 137 ft 0 kts 251°
2026-05-04 15:46 44.53365 11.28455 137 ft 0 kts 251°
2026-05-04 15:46 44.53364 11.28454 137 ft 0 kts 251°
2026-05-04 15:47 44.53363 11.28450 137 ft 0 kts 251°
2026-05-04 15:47 44.53362 11.28445 137 ft 0 kts 251°
2026-05-04 15:48 44.53361 11.28441 137 ft 0 kts 251°
2026-05-04 15:49 44.53360 11.28438 137 ft 0 kts 251°
2026-05-04 15:50 44.53360 11.28436 137 ft 0 kts 251°
2026-05-04 15:51 44.53412 11.28551 137 ft 0 kts 297°
2026-05-04 15:52 44.53412 11.28552 137 ft 0 kts 297°
2026-05-04 15:52 44.53420 11.28531 137 ft 6 kts 297°
2026-05-04 15:53 44.53427 11.28510 137 ft 0 kts 297°
2026-05-04 15:53 44.53426 11.28515 137 ft 1 kts 297°
2026-05-04 15:53 44.53424 11.28520 137 ft 1 kts 297°
2026-05-04 15:53 44.53428 11.28502 137 ft 6 kts 297°
2026-05-04 15:54 44.53455 11.28429 137 ft 13 kts 297°
2026-05-04 15:54 44.53484 11.28345 137 ft 8 kts 297°
2026-05-04 15:54 44.53496 11.28331 137 ft 1 kts 297°
2026-05-04 15:54 44.53501 11.28324 137 ft 0 kts 297°
2026-05-04 15:55 44.53502 11.28324 137 ft 1 kts 297°
2026-05-04 15:55 44.53500 11.28330 137 ft 1 kts 297°
2026-05-04 15:55 44.53498 11.28336 137 ft 1 kts 297°
2026-05-04 15:55 44.53496 11.28342 137 ft 1 kts 297°
2026-05-04 15:56 44.53494 11.28348 137 ft 1 kts 297°
2026-05-04 15:56 44.53492 11.28352 137 ft 0 kts 297°
2026-05-04 15:56 44.53499 11.28345 137 ft 1 kts 297°
2026-05-04 15:57 44.53505 11.28337 137 ft 1 kts 297°
2026-05-04 15:57 44.53443 11.28464 137 ft 0 kts 297°
2026-05-04 15:58 44.53445 11.28460 136 ft 0 kts 297°
2026-05-04 15:58 44.53451 11.28440 137 ft 9 kts 295°
2026-05-04 15:58 44.53485 11.28341 137 ft 6 kts 298°
2026-05-04 15:59 44.53528 11.28303 136 ft 11 kts 331°
2026-05-04 15:59 44.53585 11.28207 137 ft 15 kts 294°
2026-05-04 15:59 44.53632 11.28074 136 ft 17 kts 296°
2026-05-04 15:59 44.53694 11.27900 137 ft 22 kts 296°
2026-05-04 16:00 44.53770 11.27692 136 ft 25 kts 297°
2026-05-04 16:00 44.53851 11.27468 136 ft 23 kts 297°
2026-05-04 16:00 44.53938 11.27306 137 ft 21 kts 327°
2026-05-04 16:00 44.53985 11.27264 137 ft 0 kts 327°
2026-05-04 16:01 44.54029 11.27227 136 ft 12 kts 335°
2026-05-04 16:01 44.54104 11.27271 136 ft 13 kts 72°
2026-05-04 16:01 44.54086 11.27361 136 ft 0 kts 115°
2026-05-04 16:01 44.54077 11.27386 136 ft 20 kts 115°
2026-05-04 16:02 44.53888 11.27911 133 ft 98 kts 116°
2026-05-04 16:02 44.53484 11.29040 142 ft 159 kts 116°
2026-05-04 16:02 44.52758 11.31896 1462 ft 166 kts 84°
2026-05-04 16:03 44.53411 11.33223 1925 ft 173 kts 33°
2026-05-04 16:03 44.54501 11.33938 2459 ft 174 kts 20°
2026-05-04 16:03 44.55617 11.34589 3045 ft 173 kts 24°
2026-05-04 16:03 44.56717 11.35328 3507 ft 182 kts 26°
2026-05-04 16:04 44.57890 11.36198 3786 ft 202 kts 29°
2026-05-04 16:04 44.60497 11.38312 4830 ft 219 kts 31°
2026-05-04 16:04 44.61805 11.39406 5505 ft 220 kts 33°
2026-05-04 16:05 44.63128 11.40524 6123 ft 224 kts 32°
2026-05-04 16:05 44.64462 11.41683 6746 ft 227 kts 36°
2026-05-04 16:05 44.65889 11.45520 7460 ft 245 kts 100°
2026-05-04 16:06 44.65175 11.47669 7962 ft 247 kts 135°
2026-05-04 16:06 44.60754 11.48851 9434 ft 264 kts 191°
2026-05-04 16:07 44.58598 11.47233 10192 ft 276 kts 225°
2026-05-04 16:07 44.58136 11.38656 11022 ft 338 kts 285°
2026-05-04 16:08 44.58947 11.35492 11349 ft 350 kts 289°
2026-05-04 16:08 44.61619 11.25767 13000 ft 360 kts 287°
2026-05-04 16:09 44.63192 11.19105 14148 ft 364 kts 285°
2026-05-04 16:09 44.64664 11.12306 15303 ft 364 kts 285°
2026-05-04 16:10 44.66104 11.05464 16363 ft 367 kts 285°
2026-05-04 16:11 44.68325 10.95058 17865 ft 374 kts 285°
2026-05-04 16:11 44.69087 10.91549 18340 ft 376 kts 286°
2026-05-04 16:12 44.71377 10.80929 19543 ft 384 kts 285°
2026-05-04 16:12 44.73694 10.70035 20716 ft 391 kts 285°
2026-05-04 16:13 44.75249 10.62660 21483 ft 396 kts 285°
2026-05-04 16:13 44.76829 10.55164 22245 ft 401 kts 285°
2026-05-04 16:14 44.78418 10.47591 22951 ft 406 kts 285°
2026-05-04 16:14 44.80028 10.39899 23643 ft 411 kts 284°
2026-05-04 16:15 44.83765 10.29029 24581 ft 421 kts 308°
2026-05-04 16:16 44.88166 10.23511 25249 ft 428 kts 322°
2026-05-04 16:16 44.95765 10.16728 26261 ft 433 kts 326°
2026-05-04 16:17 45.00054 10.13008 26865 ft 436 kts 326°
2026-05-04 16:18 45.07779 10.06031 28024 ft 442 kts 324°
2026-05-04 16:18 45.10362 10.03653 28418 ft 444 kts 324°
2026-05-04 16:19 45.18184 9.96428 29636 ft 451 kts 324°
2026-05-04 16:19 45.23477 9.91540 30437 ft 456 kts 324°
2026-05-04 16:20 45.31471 9.84137 31573 ft 461 kts 323°
2026-05-04 16:20 45.36868 9.79123 32353 ft 465 kts 323°
2026-05-04 16:21 45.44675 9.71845 33348 ft 470 kts 323°
2026-05-04 16:22 45.50178 9.66708 34015 ft 473 kts 322°
2026-05-04 16:22 45.58462 9.58950 35011 ft 474 kts 322°
2026-05-04 16:23 45.66678 9.51247 36155 ft 471 kts 323°
2026-05-04 16:24 45.77568 9.40930 37548 ft 468 kts 322°
2026-05-04 16:25 45.82973 9.35760 38246 ft 466 kts 322°
2026-05-04 16:26 45.93806 9.25516 39186 ft 467 kts 323°
2026-05-04 16:26 46.01930 9.17786 39829 ft 468 kts 323°
2026-05-04 16:27 46.07366 9.12574 40073 ft 470 kts 322°
2026-05-04 16:28 46.15850 9.05449 40081 ft 477 kts 335°
2026-05-04 16:28 46.25733 9.02775 40081 ft 486 kts 350°
2026-05-04 16:29 46.39106 9.00262 40082 ft 481 kts 339°
2026-05-04 16:30 46.47595 8.93030 40075 ft 470 kts 317°
2026-05-04 16:31 46.52581 8.86896 40078 ft 470 kts 316°
2026-05-04 16:32 46.67369 8.68133 40041 ft 471 kts 315°
2026-05-04 16:33 46.77267 8.55584 40007 ft 472 kts 315°
2026-05-04 16:34 46.84752 8.46186 39998 ft 473 kts 316°
2026-05-04 16:35 46.99647 8.27311 39996 ft 474 kts 315°